Location: Litvinovka
(48.6667°N, 34.3500°E)
Time: 18:42:05
(UTC+00:00)

Cosmos 1125 Rocket - Pass Details

Date: 18 September 2020
Orbit: 757 x 780 km, 74.0° (Epoch: 22 October)

Event Time Altitude Azimuth Distance (km) Brightness Sun altitude
Rises 17:17:06 0° 173° (S) 3,244 6.5 -15.1°
Reaches altitude 10° 17:19:40 10° 164° (SSE) 2,323 5.6 -15.5°
Maximum altitude 17:24:20 33° 101° (ESE) 1,297 4.1 -16.2°
Drops below altitude 10° 17:29:02 10° 39° (NE) 2,343 5.8 -17.0°
Sets 17:31:37 0° 31° (NNE) 3,275 6.7 -17.4°
